Zurück zum Katalog

CZ-3B DEB

AktivGTO
NORAD 40167·DEBRIS·🇨🇳 China

Gestartet Sep 4, 2010 von Xichang Satellite Launch Center

Loading…

TLE

VeraltetSource: Space-Track

Epoche: Sep 12, 2026, 03:39 UTC

1 40167U 10042U   26255.15244458 -.00000005  00000-0  00000-0 0  9994
2 40167  26.7248 255.6378 7166774 358.6987   0.1029  1.93608968 97243

Verfolge CZ-3B DEB in Echtzeit mit AllMySat

Download on the App Store